START_TIME,STEP,MOV.,M6,t_acc.,M7,t_acc.,M19,t_acc.,H36,t_acc.
1979-07-24 03:00:26.610 ,1,0,0.,12.0,0.,12.0,0.,12.0,0.,12.0
1979-07-24 03:00:38.610 ,1,0,0.,12.0,0.,12.0,0.,12.0,1.,12.0
1979-07-24 03:00:50.610 ,2,1,0.,12.0,0.,12.0,0.,12.0,0.,12.0
1979-07-24 03:01:02.610 ,2,1,0.,12.0,0.,12.0,0.,12.0,1.,12.0
1979-07-24 03:01:14.610 ,2,0,0.,12.0,0.,12.0,0.,12.0,0.,12.0
1979-07-24 03:01:26.610 ,2,0,0.,12.0,0.,12.0,0.,12.0,1.,12.0
1979-07-24 03:01:38.610 ,3,1,0.,12.0,0.,12.0,0.,12.0,0.,12.0
1979-07-24 03:01:50.610 ,3,1,0.,12.0,0.,12.0,0.,12.0,0.,12.0
1979-07-24 03:02:02.610 ,3,0,0.,12.0,0.,12.0,0.,12.0,0.,12.0
1979-07-24 03:02:14.610 ,3,0,0.,12.0,0.,12.0,0.,12.0,0.,12.0
1979-07-24 03:02:26.610 ,4,1,0.,12.0,0.,12.0,0.,12.0,0.,12.0
1979-07-24 03:02:38.610 ,4,1,0.,12.0,0.,12.0,0.,12.0,0.,12.0
1979-07-24 03:02:50.610 ,4,0,1.,12.0,0.,12.0,0.,12.0,0.,12.0
1979-07-24 03:03:02.610 ,4,0,0.,12.0,0.,12.0,0.,12.0,0.,12.0
1979-07-24 03:03:14.610 ,5,1,1.,12.0,0.,12.0,0.,12.0,0.,12.0
1979-07-24 03:03:26.610 ,5,1,1.,12.0,0.,12.0,0.,12.0,0.,12.0
1979-07-24 03:03:38.610 ,5,0,1.,12.0,0.,12.0,0.,12.0,0.,12.0
1979-07-24 03:03:50.610 ,5,0,1.,12.0,0.,12.0,0.,12.0,0.,12.0
1979-07-24 03:04:02.610 ,6,1,1.,12.0,0.,12.0,0.,12.0,0.,12.0
1979-07-24 03:04:14.610 ,6,1,0.,12.0,0.,12.0,0.,12.0,1.,12.0
1979-07-24 03:04:26.610 ,6,0,0.,12.0,0.,12.0,0.,12.0,0.,12.0
1979-07-24 03:04:38.610 ,6,0,1.,12.0,0.,12.0,0.,12.0,0.,12.0
1979-07-24 03:04:50.610 ,7,1,0.,12.0,0.,12.0,0.,12.0,0.,12.0
1979-07-24 03:05:02.610 ,7,1,0.,12.0,0.,12.0,0.,12.0,0.,12.0
1979-07-24 03:05:14.610 ,7,0,0.,12.0,0.,12.0,0.,12.0,0.,12.0
1979-07-24 03:05:26.610 ,7,0,0.,12.0,0.,12.0,0.,12.0,0.,12.0
1979-07-24 03:05:38.610 ,7,1,0.,12.0,0.,12.0,0.,12.0,0.,12.0
1979-07-24 03:05:50.610 ,7,1,0.,12.0,0.,12.0,0.,12.0,0.,12.0
1979-07-24 03:06:02.610 ,7,0,0.,12.0,0.,12.0,0.,12.0,0.,12.0
1979-07-24 03:06:14.610 ,7,0,0.,12.0,0.,12.0,0.,12.0,0.,12.0
1979-07-24 03:06:26.610 ,6,1,0.,12.0,0.,12.0,0.,12.0,0.,12.0
1979-07-24 03:06:38.610 ,6,1,1.,12.0,0.,12.0,0.,12.0,0.,12.0
1979-07-24 03:06:50.610 ,6,0,0.,12.0,0.,12.0,0.,12.0,0.,12.0
1979-07-24 03:07:02.610 ,6,0,1.,12.0,0.,12.0,0.,12.0,0.,12.0
1979-07-24 03:07:14.610 ,5,1,1.,12.0,0.,12.0,0.,12.0,0.,12.0
1979-07-24 03:07:26.610 ,5,1,0.,12.0,0.,12.0,0.,12.0,0.,12.0
1979-07-24 03:07:38.610 ,5,0,0.,12.0,0.,12.0,0.,12.0,0.,12.0
1979-07-24 03:07:50.610 ,5,0,0.,12.0,0.,12.0,0.,12.0,0.,12.0
1979-07-24 03:08:02.610 ,4,1,0.,12.0,0.,12.0,0.,12.0,0.,12.0
1979-07-24 03:08:14.610 ,4,1,0.,12.0,0.,12.0,0.,12.0,0.,12.0
1979-07-24 03:08:26.610 ,4,0,0.,12.0,0.,12.0,0.,12.0,0.,12.0
1979-07-24 03:08:38.610 ,4,0,0.,12.0,0.,12.0,0.,12.0,0.,12.0
1979-07-24 03:08:50.610 ,3,1,0.,12.0,0.,12.0,0.,12.0,0.,12.0
1979-07-24 03:09:02.610 ,3,1,0.,12.0,0.,12.0,0.,12.0,0.,12.0
1979-07-24 03:09:14.610 ,3,0,0.,12.0,0.,12.0,0.,12.0,0.,12.0
1979-07-24 03:09:26.610 ,3,0,0.,12.0,0.,12.0,0.,12.0,0.,12.0
1979-07-24 03:09:38.610 ,2,1,0.,12.0,0.,12.0,0.,12.0,1.,12.0
1979-07-24 03:09:50.610 ,2,1,1.,12.0,0.,12.0,0.,12.0,1.,12.0
1979-07-24 03:10:02.610 ,2,0,1.,12.0,0.,12.0,0.,12.0,0.,12.0
1979-07-24 03:10:14.610 ,2,0,1.,12.0,0.,12.0,0.,12.0,0.,12.0
1979-07-24 03:10:26.610 ,1,1,0.,12.0,0.,12.0,0.,12.0,0.,12.0
1979-07-24 03:10:38.610 ,1,1,0.,12.0,0.,12.0,0.,12.0,0.,12.0
1979-07-24 03:10:50.610 ,1,0,1.,12.0,0.,12.0,0.,12.0,1.,12.0
1979-07-24 03:11:02.610 ,1,0,0.,12.0,0.,12.0,0.,12.0,1.,12.0
1979-07-24 03:11:14.610 ,0,1,0.,12.0,0.,12.0,0.,12.0,0.,12.0
1979-07-24 03:11:26.610 ,0,1,1.,12.0,0.,12.0,0.,12.0,0.,12.0
1979-07-24 03:11:38.610 ,0,0,2.,12.0,0.,12.0,0.,12.0,1.,12.0
1979-07-24 03:11:50.610 ,0,0,0.,12.0,0.,12.0,0.,12.0,1.,12.0
1979-07-24 03:12:02.610 ,0,1,1.,12.0,0.,12.0,0.,12.0,0.,12.0
1979-07-24 03:12:14.610 ,0,1,3.,12.0,0.,12.0,0.,12.0,2.,12.0
1979-07-24 03:12:26.610 ,0,0,0.,12.0,0.,12.0,0.,12.0,0.,12.0
1979-07-24 03:12:38.610 ,0,0,2.,12.0,0.,12.0,0.,12.0,0.,12.0
1979-07-24 03:12:50.610 ,1,1,0.,12.0,0.,12.0,0.,12.0,1.,12.0
1979-07-24 03:13:02.610 ,1,1,0.,12.0,0.,12.0,0.,12.0,0.,12.0
1979-07-24 03:13:14.610 ,1,0,1.,12.0,0.,12.0,0.,12.0,1.,12.0
1979-07-24 03:13:26.610 ,1,0,1.,12.0,0.,12.0,0.,12.0,0.,12.0
1979-07-24 03:13:38.610 ,2,1,0.,12.0,0.,12.0,0.,12.0,0.,12.0
1979-07-24 03:13:50.610 ,2,1,1.,12.0,0.,12.0,0.,12.0,0.,12.0
1979-07-24 03:14:02.610 ,2,0,1.,12.0,0.,12.0,0.,12.0,1.,12.0
1979-07-24 03:14:14.610 ,2,0,0.,12.0,0.,12.0,0.,12.0,1.,12.0
1979-07-24 03:14:26.610 ,3,1,0.,12.0,0.,12.0,0.,12.0,0.,12.0
1979-07-24 03:14:38.610 ,3,1,0.,12.0,0.,12.0,0.,12.0,0.,12.0
1979-07-24 03:14:50.610 ,3,0,0.,12.0,0.,12.0,0.,12.0,0.,12.0
1979-07-24 03:15:02.610 ,3,0,0.,12.0,0.,12.0,0.,12.0,0.,12.0
1979-07-24 03:15:14.610 ,4,1,0.,12.0,0.,12.0,0.,12.0,0.,12.0
1979-07-24 03:15:26.610 ,4,1,0.,12.0,0.,12.0,0.,12.0,0.,12.0
1979-07-24 03:15:38.610 ,4,0,0.,12.0,0.,12.0,0.,12.0,0.,12.0
1979-07-24 03:15:50.610 ,4,0,0.,12.0,0.,12.0,0.,12.0,0.,12.0
1979-07-24 03:16:02.610 ,5,1,0.,12.0,0.,12.0,0.,12.0,0.,12.0
1979-07-24 03:16:14.610 ,5,1,0.,12.0,0.,12.0,0.,12.0,1.,12.0
1979-07-24 03:16:26.610 ,5,0,0.,12.0,0.,12.0,0.,12.0,0.,12.0
1979-07-24 03:16:38.610 ,5,0,1.,12.0,0.,12.0,0.,12.0,1.,12.0
1979-07-24 03:16:50.610 ,6,1,0.,12.0,0.,12.0,0.,12.0,0.,12.0
1979-07-24 03:17:02.610 ,6,1,0.,12.0,0.,12.0,0.,12.0,0.,12.0
1979-07-24 03:17:14.610 ,6,0,0.,12.0,0.,12.0,0.,12.0,0.,12.0
1979-07-24 03:17:26.610 ,6,0,0.,12.0,0.,12.0,0.,12.0,0.,12.0
1979-07-24 03:17:38.610 ,7,1,0.,12.0,0.,12.0,0.,12.0,0.,12.0
1979-07-24 03:17:50.610 ,7,1,0.,12.0,0.,12.0,0.,12.0,0.,12.0
1979-07-24 03:18:02.610 ,7,0,0.,12.0,0.,12.0,0.,12.0,0.,12.0
1979-07-24 03:18:14.610 ,7,0,0.,12.0,0.,12.0,0.,12.0,0.,12.0
1979-07-24 03:18:26.610 ,7,1,0.,12.0,0.,12.0,0.,12.0,0.,12.0
1979-07-24 03:18:38.610 ,7,1,0.,12.0,0.,12.0,0.,12.0,0.,12.0
1979-07-24 03:18:50.610 ,7,0,0.,12.0,0.,12.0,0.,12.0,0.,12.0
1979-07-24 03:19:02.610 ,7,0,0.,12.0,0.,12.0,0.,12.0,0.,12.0
1979-07-24 03:19:14.610 ,6,1,0.,12.0,0.,12.0,0.,12.0,0.,12.0
1979-07-24 03:19:26.610 ,6,1,1.,12.0,0.,12.0,0.,12.0,0.,12.0
1979-07-24 03:19:38.610 ,6,0,1.,12.0,0.,12.0,0.,12.0,0.,12.0
1979-07-24 03:19:50.610 ,6,0,0.,12.0,0.,12.0,0.,12.0,1.,12.0
1979-07-24 03:20:02.610 ,5,1,0.,12.0,0.,12.0,0.,12.0,0.,12.0
1979-07-24 03:20:14.610 ,5,1,0.,12.0,0.,12.0,0.,12.0,1.,12.0
1979-07-24 03:20:26.610 ,5,0,2.,12.0,0.,12.0,0.,12.0,0.,12.0
1979-07-24 03:20:38.610 ,5,0,0.,12.0,0.,12.0,0.,12.0,0.,12.0
1979-07-24 03:20:50.610 ,4,1,0.,12.0,0.,12.0,0.,12.0,0.,12.0
1979-07-24 03:21:02.610 ,4,1,0.,12.0,0.,12.0,0.,12.0,0.,12.0
1979-07-24 03:21:14.610 ,4,0,0.,12.0,0.,12.0,0.,12.0,0.,12.0
1979-07-24 03:21:26.610 ,4,0,1.,12.0,0.,12.0,0.,12.0,0.,12.0
1979-07-24 03:21:38.610 ,3,1,1.,12.0,0.,12.0,0.,12.0,1.,12.0
1979-07-24 03:21:50.610 ,3,1,0.,12.0,0.,12.0,0.,12.0,0.,12.0
1979-07-24 03:22:02.610 ,3,0,0.,12.0,0.,12.0,0.,12.0,0.,12.0
1979-07-24 03:22:14.610 ,3,0,0.,12.0,0.,12.0,0.,12.0,0.,12.0
1979-07-24 03:22:26.610 ,2,1,0.,12.0,0.,12.0,0.,12.0,1.,12.0
1979-07-24 03:22:38.610 ,2,1,0.,12.0,0.,12.0,0.,12.0,0.,12.0
1979-07-24 03:22:50.610 ,2,0,0.,12.0,0.,12.0,0.,12.0,0.,12.0
1979-07-24 03:23:02.610 ,2,0,0.,12.0,0.,12.0,0.,12.0,0.,12.0
1979-07-24 03:23:14.610 ,1,1,0.,12.0,0.,12.0,0.,12.0,0.,12.0
1979-07-24 03:23:26.610 ,1,1,2.,12.0,0.,12.0,0.,12.0,0.,12.0
1979-07-24 03:23:38.610 ,1,0,0.,12.0,0.,12.0,0.,12.0,0.,12.0
1979-07-24 03:23:50.610 ,1,0,1.,12.0,0.,12.0,0.,12.0,0.,12.0
1979-07-24 03:24:02.610 ,0,1,1.,12.0,0.,12.0,0.,12.0,1.,12.0
1979-07-24 03:24:14.610 ,0,1,2.,12.0,0.,12.0,0.,12.0,2.,12.0
1979-07-24 03:24:26.610 ,0,0,0.,12.0,0.,12.0,0.,12.0,0.,12.0
1979-07-24 03:24:38.610 ,0,0,1.,12.0,0.,12.0,0.,12.0,0.,12.0
1979-07-24 03:24:50.610 ,0,1,0.,12.0,0.,12.0,0.,12.0,0.,12.0
1979-07-24 03:25:02.610 ,0,1,1.,12.0,0.,12.0,0.,12.0,0.,12.0
1979-07-24 03:25:14.610 ,0,0,3.,12.0,0.,12.0,0.,12.0,0.,12.0
1979-07-24 03:25:26.610 ,0,0,4.,12.0,0.,12.0,0.,12.0,0.,12.0
1979-07-24 03:25:38.610 ,1,1,1.,12.0,0.,12.0,0.,12.0,0.,12.0
1979-07-24 03:25:50.610 ,1,1,1.,12.0,0.,12.0,0.,12.0,3.,12.0
1979-07-24 03:26:02.610 ,1,0,0.,12.0,0.,12.0,0.,12.0,1.,12.0
1979-07-24 03:26:14.610 ,1,0,2.,12.0,0.,12.0,0.,12.0,3.,12.0
1979-07-24 03:26:26.610 ,2,1,1.,12.0,0.,12.0,0.,12.0,0.,12.0
1979-07-24 03:26:38.610 ,2,1,0.,12.0,0.,12.0,0.,12.0,0.,12.0
1979-07-24 03:26:50.610 ,2,0,0.,12.0,0.,12.0,0.,12.0,0.,12.0
1979-07-24 03:27:02.610 ,2,0,0.,12.0,0.,12.0,0.,12.0,0.,12.0
1979-07-24 03:27:14.610 ,3,1,0.,12.0,0.,12.0,0.,12.0,2.,12.0
1979-07-24 03:27:26.610 ,3,1,0.,12.0,0.,12.0,0.,12.0,0.,12.0
1979-07-24 03:27:38.610 ,3,0,0.,12.0,0.,12.0,0.,12.0,0.,12.0
1979-07-24 03:27:50.610 ,3,0,0.,12.0,0.,12.0,0.,12.0,0.,12.0
1979-07-24 03:28:02.610 ,4,1,0.,12.0,0.,12.0,0.,12.0,0.,12.0
1979-07-24 03:28:14.610 ,4,1,0.,12.0,0.,12.0,0.,12.0,0.,12.0
1979-07-24 03:28:26.610 ,4,0,0.,12.0,0.,12.0,0.,12.0,0.,12.0
1979-07-24 03:28:38.610 ,4,0,0.,12.0,0.,12.0,0.,12.0,1.,12.0
1979-07-24 03:28:50.610 ,5,1,0.,12.0,0.,12.0,0.,12.0,0.,12.0
1979-07-24 03:29:02.610 ,5,1,0.,12.0,0.,12.0,0.,12.0,0.,12.0
1979-07-24 03:29:14.610 ,5,0,0.,12.0,0.,12.0,0.,12.0,1.,12.0
1979-07-24 03:29:26.610 ,5,0,0.,12.0,0.,12.0,0.,12.0,0.,12.0
1979-07-24 03:29:38.610 ,6,1,0.,12.0,0.,12.0,0.,12.0,0.,12.0
1979-07-24 03:29:50.610 ,6,1,1.,12.0,0.,12.0,0.,12.0,0.,12.0
1979-07-24 03:30:02.610 ,6,0,1.,12.0,0.,12.0,0.,12.0,0.,12.0
1979-07-24 03:30:14.610 ,6,0,0.,12.0,0.,12.0,0.,12.0,0.,12.0
1979-07-24 03:30:26.610 ,7,0,0.,12.0,0.,12.0,0.,12.0,1.,12.0
1979-07-24 03:30:38.610 ,7,0,0.,12.0,0.,12.0,0.,12.0,0.,12.0
1979-07-24 03:30:50.610 ,7,0,0.,12.0,0.,12.0,0.,12.0,0.,12.0
1979-07-24 03:31:02.610 ,7,0,0.,12.0,0.,12.0,0.,12.0,0.,12.0
1979-07-24 03:31:14.610 ,4,1,0.,12.0,0.,12.0,0.,12.0,0.,12.0
1979-07-24 03:31:26.610 ,4,1,0.,12.0,0.,12.0,0.,12.0,1.,12.0
1979-07-24 03:31:38.610 ,0,1,0.,12.0,0.,12.0,0.,12.0,0.,12.0
1979-07-24 03:31:50.610 ,0,1,1.,12.0,0.,12.0,0.,12.0,0.,12.0
1979-07-24 03:32:02.610 ,3,1,0.,12.0,0.,12.0,0.,12.0,0.,12.0
1979-07-24 03:32:14.610 ,3,1,0.,12.0,0.,12.0,0.,12.0,0.,12.0
1979-07-24 03:32:26.610 ,7,1,0.,12.0,0.,12.0,0.,12.0,0.,12.0
1979-07-24 03:32:38.610 ,7,1,0.,12.0,0.,12.0,0.,12.0,0.,12.0
1979-07-24 03:32:50.610 ,4,1,0.,12.0,0.,12.0,0.,12.0,0.,12.0
1979-07-24 03:33:02.610 ,4,1,0.,12.0,0.,12.0,0.,12.0,0.,12.0
1979-07-24 03:33:14.610 ,0,1,1.,12.0,0.,12.0,0.,12.0,0.,12.0
1979-07-24 03:33:26.610 ,0,1,3.,12.0,0.,12.0,0.,12.0,0.,12.0
1979-07-24 03:33:38.610 ,3,1,3.,12.0,0.,12.0,0.,12.0,0.,12.0
1979-07-24 03:33:50.610 ,3,1,0.,12.0,0.,12.0,0.,12.0,1.,12.0
1979-07-24 03:34:02.610 ,7,1,0.,12.0,0.,12.0,0.,12.0,0.,12.0
1979-07-24 03:34:14.610 ,7,1,0.,12.0,0.,12.0,0.,12.0,0.,12.0
1979-07-24 03:34:26.610 ,4,1,1.,12.0,0.,12.0,0.,12.0,0.,12.0
1979-07-24 03:34:38.610 ,4,1,0.,12.0,0.,12.0,0.,12.0,0.,12.0
1979-07-24 03:34:50.610 ,0,1,0.,12.0,0.,12.0,0.,12.0,0.,12.0
1979-07-24 03:35:02.610 ,0,1,0.,12.0,0.,12.0,0.,12.0,0.,12.0
1979-07-24 03:35:14.610 ,3,1,3.,12.0,0.,12.0,0.,12.0,0.,12.0
1979-07-24 03:35:26.610 ,3,1,0.,12.0,0.,12.0,0.,12.0,0.,12.0
1979-07-24 03:35:38.610 ,7,1,0.,12.0,0.,12.0,0.,12.0,0.,12.0
1979-07-24 03:35:50.610 ,7,1,0.,12.0,0.,12.0,0.,12.0,1.,12.0
1979-07-24 03:36:02.610 ,4,1,0.,12.0,0.,12.0,0.,12.0,0.,12.0
1979-07-24 03:36:14.610 ,4,1,1.,12.0,0.,12.0,0.,12.0,0.,12.0
1979-07-24 03:36:26.610 ,0,1,3.,12.0,0.,12.0,0.,12.0,1.,12.0
1979-07-24 03:36:38.610 ,0,1,1.,12.0,0.,12.0,0.,12.0,0.,12.0
1979-07-24 03:36:50.610 ,3,1,1.,12.0,0.,12.0,0.,12.0,0.,12.0
1979-07-24 03:37:02.610 ,3,1,0.,12.0,0.,12.0,0.,12.0,0.,12.0
1979-07-24 03:37:14.610 ,7,1,1.,12.0,0.,12.0,0.,12.0,0.,12.0
1979-07-24 03:37:26.610 ,7,1,1.,12.0,0.,12.0,0.,12.0,0.,12.0
1979-07-24 03:37:38.610 ,4,1,0.,12.0,0.,12.0,0.,12.0,0.,12.0
1979-07-24 03:37:50.610 ,4,1,0.,12.0,0.,12.0,0.,12.0,0.,12.0
1979-07-24 03:38:02.610 ,0,1,0.,12.0,0.,12.0,0.,12.0,0.,12.0
1979-07-24 03:38:14.610 ,0,1,0.,12.0,0.,12.0,0.,12.0,1.,12.0
1979-07-24 03:38:26.610 ,3,1,2.,12.0,0.,12.0,0.,12.0,0.,12.0
1979-07-24 03:38:38.610 ,3,1,1.,12.0,0.,12.0,0.,12.0,0.,12.0
1979-07-24 03:38:50.610 ,7,1,0.,12.0,0.,12.0,0.,12.0,0.,12.0
1979-07-24 03:39:02.610 ,7,1,0.,12.0,0.,12.0,0.,12.0,0.,12.0
1979-07-24 03:39:14.610 ,4,1,0.,12.0,0.,12.0,0.,12.0,0.,12.0
1979-07-24 03:39:26.610 ,4,1,0.,12.0,0.,12.0,0.,12.0,0.,12.0
1979-07-24 03:39:38.610 ,0,1,0.,12.0,0.,12.0,0.,12.0,1.,12.0
1979-07-24 03:39:50.610 ,0,1,0.,12.0,0.,12.0,0.,12.0,1.,12.0
1979-07-24 03:40:02.610 ,3,1,1.,12.0,0.,12.0,0.,12.0,0.,12.0
1979-07-24 03:40:14.610 ,3,1,0.,12.0,0.,12.0,0.,12.0,0.,12.0
1979-07-24 03:40:26.610 ,7,1,0.,12.0,0.,12.0,0.,12.0,0.,12.0
1979-07-24 03:40:38.610 ,7,1,0.,12.0,0.,12.0,0.,12.0,0.,12.0
1979-07-24 03:41:38.610 ,0,0,1.,12.0,0.,12.0,0.,12.0,0.,12.0
1979-07-24 03:41:50.610 ,0,0,0.,12.0,0.,12.0,0.,12.0,0.,12.0
1979-07-24 03:42:02.610 ,0,0,31.,12.0,35.,12.0,4608.,12.0,4063232.,12.0
1979-07-24 03:42:14.610 ,0,0,,0,,0,,0,,0
1979-07-24 03:42:02.610 ,0,0,0.,12.0,0.,12.0,0.,12.0,0.,12.0
1979-07-24 03:42:14.610 ,0,0,0.,12.0,0.,12.0,0.,12.0,0.,12.0
1979-07-24 03:42:26.610 ,5,1,0.,12.0,0.,12.0,0.,12.0,0.,12.0
1979-07-24 03:42:38.610 ,5,1,0.,12.0,0.,12.0,0.,12.0,0.,12.0
1979-07-24 03:42:50.610 ,5,0,0.,12.0,0.,12.0,0.,12.0,0.,12.0
1979-07-24 03:43:02.610 ,5,0,0.,12.0,0.,12.0,0.,12.0,0.,12.0
1979-07-24 03:43:14.610 ,4,1,0.,12.0,0.,12.0,0.,12.0,0.,12.0
1979-07-24 03:43:26.610 ,4,1,0.,12.0,0.,12.0,0.,12.0,0.,12.0
1979-07-24 03:43:38.610 ,4,0,1.,12.0,0.,12.0,0.,12.0,0.,12.0
1979-07-24 03:43:50.610 ,4,0,1.,12.0,0.,12.0,0.,12.0,1.,12.0
1979-07-24 03:44:02.610 ,3,1,0.,12.0,0.,12.0,0.,12.0,0.,12.0
1979-07-24 03:44:14.610 ,3,1,0.,12.0,0.,12.0,0.,12.0,0.,12.0
1979-07-24 03:44:26.610 ,3,0,0.,12.0,0.,12.0,0.,12.0,0.,12.0
1979-07-24 03:44:38.610 ,3,0,0.,12.0,0.,12.0,0.,12.0,1.,12.0
1979-07-24 03:44:50.610 ,2,1,0.,12.0,0.,12.0,0.,12.0,0.,12.0
1979-07-24 03:45:02.610 ,2,1,1.,12.0,0.,12.0,0.,12.0,0.,12.0
1979-07-24 03:45:14.610 ,2,0,1.,12.0,0.,12.0,0.,12.0,1.,12.0
1979-07-24 03:45:26.610 ,2,0,0.,12.0,0.,12.0,0.,12.0,0.,12.0
1979-07-24 03:45:38.610 ,1,1,0.,12.0,0.,12.0,0.,12.0,0.,12.0
1979-07-24 03:45:50.610 ,1,1,2.,12.0,0.,12.0,0.,12.0,0.,12.0
1979-07-24 03:46:02.610 ,1,0,0.,12.0,0.,12.0,0.,12.0,0.,12.0
1979-07-24 03:46:14.610 ,1,0,2.,12.0,0.,12.0,0.,12.0,0.,12.0
1979-07-24 03:46:26.610 ,0,1,0.,12.0,0.,12.0,0.,12.0,1.,12.0
1979-07-24 03:46:38.610 ,0,1,1.,12.0,0.,12.0,0.,12.0,0.,12.0
1979-07-24 03:46:50.610 ,0,0,0.,12.0,0.,12.0,0.,12.0,0.,12.0
1979-07-24 03:47:02.610 ,0,0,2.,12.0,0.,12.0,0.,12.0,0.,12.0
1979-07-24 03:47:14.610 ,0,1,1.,12.0,0.,12.0,0.,12.0,0.,12.0
1979-07-24 03:47:26.610 ,0,1,2.,12.0,0.,12.0,0.,12.0,0.,12.0
1979-07-24 03:47:38.610 ,0,0,1.,12.0,0.,12.0,0.,12.0,0.,12.0
1979-07-24 03:47:50.610 ,0,0,0.,12.0,0.,12.0,0.,12.0,1.,12.0
1979-07-24 03:48:02.610 ,1,1,2.,12.0,0.,12.0,0.,12.0,1.,12.0
1979-07-24 03:48:14.610 ,1,1,0.,12.0,0.,12.0,0.,12.0,1.,12.0
1979-07-24 03:48:26.610 ,1,0,0.,12.0,0.,12.0,0.,12.0,1.,12.0
1979-07-24 03:48:38.610 ,1,0,0.,12.0,0.,12.0,0.,12.0,1.,12.0
1979-07-24 03:48:50.610 ,2,1,0.,12.0,0.,12.0,0.,12.0,0.,12.0
1979-07-24 03:49:02.610 ,2,1,0.,12.0,0.,12.0,0.,12.0,0.,12.0
1979-07-24 03:49:14.610 ,2,0,0.,12.0,0.,12.0,0.,12.0,0.,12.0
1979-07-24 03:49:26.610 ,2,0,1.,12.0,0.,12.0,0.,12.0,0.,12.0
1979-07-24 03:49:38.600 ,3,1,0.,12.0,0.,12.0,0.,12.0,1.,12.0
1979-07-24 03:49:50.600 ,3,1,1.,12.0,0.,12.0,0.,12.0,0.,12.0
1979-07-24 03:50:02.600 ,3,0,1.,12.0,0.,12.0,0.,12.0,0.,12.0
1979-07-24 03:50:14.600 ,3,0,0.,12.0,0.,12.0,0.,12.0,0.,12.0
1979-07-24 03:50:26.600 ,4,1,0.,12.0,0.,12.0,0.,12.0,0.,12.0
1979-07-24 03:50:38.600 ,4,1,0.,12.0,0.,12.0,0.,12.0,0.,12.0
1979-07-24 03:50:50.600 ,4,0,0.,12.0,0.,12.0,0.,12.0,0.,12.0
1979-07-24 03:51:02.600 ,4,0,0.,12.0,0.,12.0,0.,12.0,0.,12.0
1979-07-24 03:51:14.600 ,5,1,0.,12.0,0.,12.0,0.,12.0,0.,12.0
1979-07-24 03:51:26.600 ,5,1,0.,12.0,0.,12.0,0.,12.0,1.,12.0
1979-07-24 03:51:38.600 ,5,0,0.,12.0,0.,12.0,0.,12.0,0.,12.0
1979-07-24 03:51:50.600 ,5,0,1.,12.0,0.,12.0,0.,12.0,0.,12.0
1979-07-24 03:52:02.600 ,6,1,0.,12.0,0.,12.0,0.,12.0,0.,12.0
1979-07-24 03:52:14.600 ,6,1,0.,12.0,0.,12.0,0.,12.0,0.,12.0
1979-07-24 03:52:26.600 ,6,0,1.,12.0,0.,12.0,0.,12.0,0.,12.0
1979-07-24 03:52:38.600 ,6,0,1.,12.0,0.,12.0,0.,12.0,0.,12.0
1979-07-24 03:52:50.600 ,7,1,0.,12.0,0.,12.0,0.,12.0,0.,12.0
1979-07-24 03:53:02.600 ,7,1,0.,12.0,0.,12.0,0.,12.0,0.,12.0
1979-07-24 03:53:14.600 ,7,0,0.,12.0,0.,12.0,0.,12.0,0.,12.0
1979-07-24 03:53:26.600 ,7,0,0.,12.0,0.,12.0,0.,12.0,0.,12.0
1979-07-24 03:53:38.600 ,7,1,0.,12.0,0.,12.0,0.,12.0,0.,12.0
1979-07-24 03:53:50.600 ,7,1,0.,12.0,0.,12.0,0.,12.0,0.,12.0
1979-07-24 03:54:02.600 ,7,0,0.,12.0,0.,12.0,0.,12.0,0.,12.0
1979-07-24 03:54:14.600 ,7,0,0.,12.0,0.,12.0,0.,12.0,0.,12.0
1979-07-24 03:54:26.600 ,6,1,0.,12.0,0.,12.0,0.,12.0,0.,12.0
1979-07-24 03:54:38.600 ,6,1,0.,12.0,0.,12.0,0.,12.0,0.,12.0
1979-07-24 03:54:50.600 ,6,0,0.,12.0,0.,12.0,0.,12.0,0.,12.0
1979-07-24 03:55:02.600 ,6,0,1.,12.0,0.,12.0,0.,12.0,0.,12.0
1979-07-24 03:55:38.600 ,5,0,0.,12.0,0.,12.0,0.,12.0,0.,12.0
1979-07-24 03:55:50.600 ,5,0,1.,12.0,0.,12.0,0.,12.0,0.,12.0
1979-07-24 03:56:02.600 ,4,1,0.,12.0,0.,12.0,0.,12.0,0.,12.0
1979-07-24 03:56:14.600 ,4,1,0.,12.0,0.,12.0,0.,12.0,0.,12.0
1979-07-24 03:56:26.600 ,4,0,0.,12.0,0.,12.0,0.,12.0,0.,12.0
1979-07-24 03:56:38.600 ,4,0,0.,12.0,0.,12.0,0.,12.0,0.,12.0
1979-07-24 03:56:50.600 ,3,1,0.,12.0,0.,12.0,0.,12.0,0.,12.0
1979-07-24 03:57:02.600 ,3,1,1.,12.0,0.,12.0,0.,12.0,1.,12.0
1979-07-24 03:57:14.600 ,3,0,0.,12.0,0.,12.0,0.,12.0,0.,12.0
1979-07-24 03:57:26.600 ,3,0,1.,12.0,0.,12.0,0.,12.0,0.,12.0
1979-07-24 03:57:38.600 ,2,1,0.,12.0,0.,12.0,0.,12.0,0.,12.0
1979-07-24 03:57:50.600 ,2,1,0.,12.0,0.,12.0,0.,12.0,0.,12.0
1979-07-24 03:58:02.600 ,2,0,0.,12.0,0.,12.0,0.,12.0,0.,12.0
1979-07-24 03:58:14.600 ,2,0,1.,12.0,0.,12.0,0.,12.0,0.,12.0
1979-07-24 03:58:26.600 ,1,1,2.,12.0,0.,12.0,0.,12.0,0.,12.0
1979-07-24 03:58:38.600 ,1,1,0.,12.0,0.,12.0,0.,12.0,0.,12.0
1979-07-24 03:58:50.600 ,1,0,0.,12.0,0.,12.0,0.,12.0,0.,12.0
1979-07-24 03:59:02.600 ,1,0,1.,12.0,0.,12.0,0.,12.0,0.,12.0
1979-07-24 03:59:14.600 ,0,1,0.,12.0,0.,12.0,0.,12.0,0.,12.0
1979-07-24 03:59:26.600 ,0,1,1.,12.0,0.,12.0,0.,12.0,0.,12.0
1979-07-24 03:59:38.600 ,0,0,2.,12.0,0.,12.0,0.,12.0,0.,12.0
1979-07-24 03:59:50.600 ,0,0,0.,12.0,0.,12.0,0.,12.0,2.,12.0
1979-07-24 04:00:02.600 ,0,1,0.,12.0,0.,12.0,0.,12.0,0.,12.0
1979-07-24 04:00:14.600 ,0,1,0.,12.0,0.,12.0,0.,12.0,0.,12.0
1979-07-24 04:00:26.610 ,0,0,0.,12.0,0.,12.0,0.,12.0,1.,12.0
1979-07-24 04:00:38.610 ,0,0,2.,12.0,0.,12.0,0.,12.0,0.,12.0
1979-07-24 04:00:50.610 ,1,1,2.,12.0,0.,12.0,0.,12.0,1.,12.0
1979-07-24 04:01:02.610 ,1,1,0.,12.0,0.,12.0,0.,12.0,0.,12.0
1979-07-24 04:01:14.610 ,1,0,0.,12.0,0.,12.0,0.,12.0,0.,12.0
1979-07-24 04:01:26.610 ,1,0,0.,12.0,0.,12.0,0.,12.0,0.,12.0
1979-07-24 04:01:38.600 ,2,1,0.,12.0,0.,12.0,0.,12.0,0.,12.0
1979-07-24 04:01:50.610 ,2,1,0.,12.0,0.,12.0,0.,12.0,0.,12.0
1979-07-24 04:02:02.610 ,2,0,0.,12.0,0.,12.0,0.,12.0,0.,12.0
1979-07-24 04:02:14.610 ,2,0,0.,12.0,0.,12.0,0.,12.0,0.,12.0
1979-07-24 04:02:26.610 ,3,1,0.,12.0,0.,12.0,0.,12.0,1.,12.0
1979-07-24 04:02:38.610 ,3,1,0.,12.0,0.,12.0,0.,12.0,0.,12.0
1979-07-24 04:02:50.610 ,3,0,0.,12.0,0.,12.0,0.,12.0,1.,12.0
1979-07-24 04:03:02.610 ,3,0,0.,12.0,0.,12.0,0.,12.0,0.,12.0
1979-07-24 04:03:14.610 ,4,1,0.,12.0,0.,12.0,0.,12.0,0.,12.0
1979-07-24 04:03:26.610 ,4,1,0.,12.0,0.,12.0,0.,12.0,0.,12.0
1979-07-24 04:03:38.610 ,4,0,0.,12.0,0.,12.0,0.,12.0,0.,12.0
1979-07-24 04:03:50.610 ,4,0,0.,12.0,0.,12.0,0.,12.0,0.,12.0
1979-07-24 04:04:02.610 ,5,1,0.,12.0,0.,12.0,0.,12.0,0.,12.0
1979-07-24 04:04:14.610 ,5,1,0.,12.0,0.,12.0,0.,12.0,1.,12.0
1979-07-24 04:04:26.610 ,5,0,0.,12.0,0.,12.0,0.,12.0,1.,12.0
1979-07-24 04:04:38.610 ,5,0,0.,12.0,0.,12.0,0.,12.0,0.,12.0
1979-07-24 04:04:50.610 ,6,1,0.,12.0,0.,12.0,0.,12.0,1.,12.0
1979-07-24 04:05:02.610 ,6,1,0.,12.0,0.,12.0,0.,12.0,1.,12.0
1979-07-24 04:05:14.610 ,6,0,1.,12.0,0.,12.0,0.,12.0,0.,12.0
1979-07-24 04:05:26.610 ,6,0,1.,12.0,0.,12.0,0.,12.0,0.,12.0
1979-07-24 04:05:38.610 ,7,1,0.,12.0,0.,12.0,0.,12.0,1.,12.0
1979-07-24 04:05:50.610 ,7,1,0.,12.0,0.,12.0,0.,12.0,0.,12.0
1979-07-24 04:06:02.610 ,7,0,0.,12.0,0.,12.0,0.,12.0,0.,12.0
1979-07-24 04:06:14.610 ,7,0,0.,12.0,0.,12.0,0.,12.0,0.,12.0
1979-07-24 04:06:26.610 ,7,1,0.,12.0,0.,12.0,0.,12.0,0.,12.0
1979-07-24 04:06:38.610 ,7,1,0.,12.0,0.,12.0,0.,12.0,0.,12.0
1979-07-24 04:06:50.610 ,7,0,0.,12.0,0.,12.0,0.,12.0,0.,12.0
1979-07-24 04:07:02.610 ,7,0,0.,12.0,0.,12.0,0.,12.0,0.,12.0
1979-07-24 04:07:14.610 ,6,1,0.,12.0,0.,12.0,0.,12.0,0.,12.0
1979-07-24 04:07:26.610 ,6,1,0.,12.0,0.,12.0,0.,12.0,0.,12.0
1979-07-24 04:07:38.610 ,6,0,0.,12.0,0.,12.0,0.,12.0,0.,12.0
1979-07-24 04:07:50.610 ,6,0,2.,12.0,0.,12.0,0.,12.0,0.,12.0
1979-07-24 04:08:02.610 ,5,1,0.,12.0,0.,12.0,0.,12.0,0.,12.0
1979-07-24 04:08:14.610 ,5,1,2.,12.0,0.,12.0,0.,12.0,1.,12.0
1979-07-24 04:08:26.610 ,5,0,0.,12.0,0.,12.0,0.,12.0,0.,12.0
1979-07-24 04:08:38.610 ,5,0,0.,12.0,0.,12.0,0.,12.0,0.,12.0
1979-07-24 04:08:50.600 ,4,1,0.,12.0,0.,12.0,0.,12.0,0.,12.0
1979-07-24 04:09:02.610 ,4,1,0.,12.0,0.,12.0,0.,12.0,0.,12.0
1979-07-24 04:09:14.600 ,4,0,0.,12.0,0.,12.0,0.,12.0,0.,12.0
1979-07-24 04:09:26.610 ,4,0,0.,12.0,0.,12.0,0.,12.0,0.,12.0
1979-07-24 04:09:38.600 ,0,0,0.,12.0,0.,12.0,0.,12.0,0.,12.0
1979-07-24 04:09:50.600 ,0,0,0.,12.0,0.,12.0,0.,12.0,0.,12.0
1979-07-24 04:10:02.600 ,0,0,0.,12.0,0.,12.0,0.,12.0,0.,12.0
1979-07-24 04:10:14.600 ,0,0,0.,12.0,0.,12.0,0.,12.0,0.,12.0
1979-07-24 04:10:26.600 ,2,1,0.,12.0,0.,12.0,0.,12.0,1.,12.0
1979-07-24 04:10:38.600 ,2,1,0.,12.0,0.,12.0,0.,12.0,0.,12.0
1979-07-24 04:10:50.600 ,2,0,1.,12.0,0.,12.0,0.,12.0,0.,12.0
1979-07-24 04:11:02.600 ,2,0,0.,12.0,0.,12.0,0.,12.0,0.,12.0
1979-07-24 04:11:14.600 ,1,1,0.,12.0,0.,12.0,0.,12.0,0.,12.0
1979-07-24 04:11:26.600 ,1,1,0.,12.0,0.,12.0,0.,12.0,0.,12.0
1979-07-24 04:11:38.600 ,1,0,0.,12.0,0.,12.0,0.,12.0,1.,12.0
1979-07-24 04:11:50.600 ,1,0,0.,12.0,0.,12.0,0.,12.0,0.,12.0
1979-07-24 04:12:02.600 ,0,1,0.,12.0,0.,12.0,0.,12.0,1.,12.0
1979-07-24 04:12:14.600 ,0,1,0.,12.0,0.,12.0,0.,12.0,0.,12.0
1979-07-24 04:12:26.600 ,0,0,0.,12.0,0.,12.0,0.,12.0,0.,12.0
1979-07-24 04:12:38.600 ,0,0,1.,12.0,0.,12.0,0.,12.0,0.,12.0
1979-07-24 04:12:50.600 ,0,1,0.,12.0,0.,12.0,0.,12.0,1.,12.0
1979-07-24 04:13:02.600 ,0,1,0.,12.0,0.,12.0,0.,12.0,0.,12.0
1979-07-24 04:13:14.600 ,0,0,0.,12.0,0.,12.0,0.,12.0,1.,12.0
1979-07-24 04:13:26.600 ,0,0,1.,12.0,0.,12.0,0.,12.0,0.,12.0
1979-07-24 04:13:38.600 ,1,1,0.,12.0,0.,12.0,0.,12.0,0.,12.0
1979-07-24 04:13:50.600 ,1,1,1.,12.0,0.,12.0,0.,12.0,0.,12.0
1979-07-24 04:14:02.600 ,1,0,0.,12.0,0.,12.0,0.,12.0,0.,12.0
1979-07-24 04:14:14.600 ,1,0,0.,12.0,0.,12.0,0.,12.0,0.,12.0
1979-07-24 04:14:26.600 ,0,0,0.,12.0,0.,12.0,0.,12.0,0.,12.0
1979-07-24 04:14:38.600 ,0,0,,0,,0,,0,,0
1979-07-24 04:14:50.600 ,0,0,,0,,0,,0,,0
1979-07-24 04:15:02.600 ,0,0,,0,,0,,0,,0
1979-07-24 04:14:50.600 ,2,0,0.,12.0,0.,12.0,0.,12.0,0.,12.0
1979-07-24 04:15:02.600 ,2,0,0.,12.0,0.,12.0,0.,12.0,0.,12.0
1979-07-24 04:15:14.600 ,3,1,0.,12.0,0.,12.0,0.,12.0,0.,12.0
1979-07-24 04:15:26.600 ,3,1,0.,12.0,0.,12.0,0.,12.0,0.,12.0
1979-07-24 04:15:38.600 ,3,0,1.,12.0,0.,12.0,0.,12.0,0.,12.0
1979-07-24 04:15:50.600 ,3,0,1.,12.0,0.,12.0,0.,12.0,0.,12.0
1979-07-24 04:16:02.600 ,4,1,0.,12.0,0.,12.0,0.,12.0,0.,12.0
1979-07-24 04:16:14.600 ,4,1,0.,12.0,0.,12.0,0.,12.0,0.,12.0
1979-07-24 04:16:26.600 ,4,0,0.,12.0,0.,12.0,0.,12.0,0.,12.0
1979-07-24 04:16:38.600 ,4,0,0.,12.0,0.,12.0,0.,12.0,0.,12.0
1979-07-24 04:16:50.600 ,5,1,0.,12.0,0.,12.0,0.,12.0,0.,12.0
1979-07-24 04:17:02.600 ,5,1,0.,12.0,0.,12.0,0.,12.0,0.,12.0
1979-07-24 04:17:14.600 ,5,0,0.,12.0,0.,12.0,0.,12.0,0.,12.0
1979-07-24 04:17:26.600 ,5,0,0.,12.0,0.,12.0,0.,12.0,0.,12.0
1979-07-24 04:17:38.600 ,6,1,1.,12.0,0.,12.0,0.,12.0,0.,12.0
1979-07-24 04:17:50.600 ,6,1,2.,12.0,0.,12.0,0.,12.0,0.,12.0
1979-07-24 04:18:02.600 ,6,0,0.,12.0,0.,12.0,0.,12.0,1.,12.0